• Em Portugal
  • Lista de países
  • Para 7 dias
  • Temperatura da água
  • Mapas de satélite
  • Mapa do tempo
  • Widgets de tempo
  • user-avatar
    Iniciar Sessão

    Previsão horária em Costa Dourada

    Hoje, 28 Maio, Segunda-feira

    Tempo Temperatura Precipitação Vento Pressão Humidade
    00:00 +14°C° 0,1 mm 4 m/s 764 mmHg 91%
    01:00 +14°C° 0,1 mm 4 m/s 764 mmHg 92%
    02:00 +14°C° 0,1 mm 4 m/s 764 mmHg 93%
    03:00 +14°C° 0,1 mm 4 m/s 763 mmHg 93%
    04:00 +15°C° 0 mm 4 m/s 763 mmHg 93%
    05:00 +15°C° 0,2 mm 4 m/s 763 mmHg 94%
    06:00 +15°C° 0,2 mm 4 m/s 764 mmHg 94%
    07:00 +15°C° 0,2 mm 4 m/s 764 mmHg 94%
    08:00 +18°C° 0,2 mm 4 m/s 764 mmHg 88%
    09:00 +19°C° 0,2 mm 4 m/s 764 mmHg 82%
    10:00 +21°C° 0,2 mm 4 m/s 764 mmHg 76%
    11:00 +21°C° 0,2 mm 4 m/s 763 mmHg 75%
    12:00 +21°C° 0,2 mm 4 m/s 763 mmHg 75%
    13:00 +21°C° 0,2 mm 4 m/s 763 mmHg 74%
    14:00 +21°C° 0,1 mm 4 m/s 762 mmHg 76%
    15:00 +21°C° 0,1 mm 4 m/s 762 mmHg 78%
    16:00 +20°C° 0,1 mm 4 m/s 762 mmHg 80%
    17:00 +19°C° 0,1 mm 4 m/s 763 mmHg 84%
    18:00 +18°C° 0,1 mm 4 m/s 763 mmHg 88%
    19:00 +17°C° 0,1 mm 3 m/s 763 mmHg 92%
    20:00 +17°C° 0,1 mm 3 m/s 763 mmHg 92%
    21:00 +16°C° 0,1 mm 3 m/s 763 mmHg 93%
    22:00 +16°C° 0,1 mm 3 m/s 763 mmHg 93%
    23:00 +16°C° 0,1 mm 3 m/s 763 mmHg 94%

    Amanhã, 29 Maio, Terça-feira

    Tempo Temperatura Precipitação Vento Pressão Humidade
    00:00 +16°C° 0,1 mm 3 m/s 763 mmHg 94%
    01:00 +16°C° 0,1 mm 3 m/s 763 mmHg 95%
    02:00 +14°C° 0,1 mm 3 m/s 762 mmHg 95%
    03:00 +14°C° 0,1 mm 3 m/s 762 mmHg 96%
    04:00 +14°C° 0,1 mm 3 m/s 762 mmHg 96%
    05:00 +14°C° 0 mm 3 m/s 762 mmHg 96%
    06:00 +14°C° 0 mm 3 m/s 762 mmHg 96%
    07:00 +14°C° 0 mm 3 m/s 763 mmHg 96%
    08:00 +17°C° 0 mm 3 m/s 763 mmHg 86%
    09:00 +19°C° 0 mm 2 m/s 763 mmHg 77%
    10:00 +23°C° 0 mm 2 m/s 763 mmHg 67%
    11:00 +24°C° 0 mm 2 m/s 762 mmHg 61%
    12:00 +25°C° 0 mm 2 m/s 762 mmHg 55%
    13:00 +26°C° 0 mm 2 m/s 761 mmHg 49%
    14:00 +25°C° 0 mm 2 m/s 761 mmHg 55%
    15:00 +24°C° 0 mm 2 m/s 761 mmHg 61%
    16:00 +23°C° 0 mm 2 m/s 760 mmHg 68%
    17:00 +20°C° 0 mm 2 m/s 761 mmHg 75%
    18:00 +18°C° 0 mm 2 m/s 761 mmHg 82%
    19:00 +18°C° 0 mm 1 m/s 761 mmHg 89%
    20:00 +18°C° 0 mm 1 m/s 762 mmHg 89%
    21:00 +16°C° 0 mm 1 m/s 762 mmHg 90%
    22:00 +16°C° 0 mm 1 m/s 762 mmHg 91%
    23:00 +16°C° 0 mm 1 m/s 762 mmHg 91%

    Depois de amanhã, 30 Maio, Quarta-feira

    Tempo Temperatura Precipitação Vento Pressão Humidade
    00:00 +15°C° 0 mm 1 m/s 762 mmHg 92%
    01:00 +15°C° 0 mm 2 m/s 761 mmHg 93%
    02:00 +15°C° 0 mm 2 m/s 761 mmHg 93%
    03:00 +15°C° 0 mm 2 m/s 761 mmHg 93%
    04:00 +13°C° 0 mm 3 m/s 761 mmHg 92%
    05:00 +13°C° 0,1 mm 3 m/s 761 mmHg 92%
    06:00 +13°C° 0,1 mm 3 m/s 761 mmHg 91%
    07:00 +13°C° 0,1 mm 3 m/s 761 mmHg 90%
    08:00 +17°C° 0 mm 3 m/s 761 mmHg 78%
    09:00 +20°C° 0 mm 3 m/s 761 mmHg 66%
    10:00 +24°C° 0 mm 2 m/s 761 mmHg 54%
    11:00 +25°C° 0 mm 2 m/s 760 mmHg 48%
    12:00 +26°C° 0 mm 2 m/s 760 mmHg 42%
    13:00 +28°C° 0 mm 2 m/s 759 mmHg 36%
    14:00 +26°C° 0,2 mm 2 m/s 759 mmHg 45%
    15:00 +24°C° 0,2 mm 2 m/s 759 mmHg 53%
    16:00 +21°C° 0,2 mm 2 m/s 759 mmHg 62%
    17:00 +20°C° 0,8 mm 3 m/s 760 mmHg 69%
    18:00 +19°C° 0,8 mm 3 m/s 760 mmHg 76%
    19:00 +18°C° 0,8 mm 4 m/s 761 mmHg 83%
    20:00 +16°C° 0,7 mm 5 m/s 761 mmHg 85%
    21:00 +16°C° 0,7 mm 6 m/s 762 mmHg 87%
    22:00 +15°C° 0,7 mm 6 m/s 762 mmHg 89%
    23:00 +14°C° 0,1 mm 6 m/s 762 mmHg 88%

    31 Maio, Quinta-feira

    Tempo Temperatura Precipitação Vento Pressão Humidade
    00:00 +14°C° 0,1 mm 7 m/s 762 mmHg 86%
    01:00 +12°C° 0,1 mm 7 m/s 762 mmHg 85%
    02:00 +11°C° 0 mm 6 m/s 762 mmHg 83%
    03:00 +9°C° 0 mm 6 m/s 762 mmHg 82%
    04:00 +8°C° 0 mm 6 m/s 762 mmHg 80%
    05:00 +8°C° 0 mm 5 m/s 763 mmHg 78%
    06:00 +7°C° 0 mm 5 m/s 763 mmHg 75%
    07:00 +7°C° 0 mm 5 m/s 764 mmHg 73%
    08:00 +10°C° 0 mm 5 m/s 764 mmHg 61%
    09:00 +14°C° 0 mm 4 m/s 764 mmHg 49%
    10:00 +18°C° 0 mm 4 m/s 764 mmHg 36%
    11:00 +19°C° 0 mm 3 m/s 763 mmHg 31%
    12:00 +20°C° 0 mm 3 m/s 762 mmHg 27%
    13:00 +22°C° 0 mm 3 m/s 762 mmHg 22%
    14:00 +21°C° 0 mm 2 m/s 761 mmHg 25%
    15:00 +20°C° 0 mm 2 m/s 761 mmHg 29%
    16:00 +20°C° 0 mm 2 m/s 761 mmHg 33%
    17:00 +17°C° 0 mm 2 m/s 761 mmHg 38%
    18:00 +15°C° 0 mm 2 m/s 762 mmHg 43%
    19:00 +13°C° 0 mm 2 m/s 762 mmHg 47%
    20:00 +12°C° 0 mm 2 m/s 762 mmHg 49%
    21:00 +12°C° 0 mm 2 m/s 762 mmHg 50%
    22:00 +12°C° 0 mm 2 m/s 763 mmHg 51%
    23:00 +10°C° 0 mm 3 m/s 762 mmHg 51%

    1 Junho, Sexta-feira

    Tempo Temperatura Precipitação Vento Pressão Humidade
    00:00 +10°C° 0 mm 3 m/s 762 mmHg 52%
    01:00 +10°C° 0 mm 3 m/s 762 mmHg 52%
    02:00 +9°C° 0 mm 3 m/s 762 mmHg 54%
    03:00 +8°C° 0 mm 4 m/s 762 mmHg 56%
    04:00 +8°C° 0 mm 4 m/s 761 mmHg 59%
    05:00 +8°C° 0 mm 4 m/s 762 mmHg 60%
    06:00 +8°C° 0 mm 4 m/s 762 mmHg 61%
    07:00 +8°C° 0 mm 4 m/s 762 mmHg 61%
    08:00 +11°C° 0 mm 4 m/s 762 mmHg 54%
    09:00 +14°C° 0 mm 4 m/s 762 mmHg 47%
    10:00 +18°C° 0 mm 4 m/s 762 mmHg 40%
    11:00 +19°C° 0 mm 4 m/s 762 mmHg 37%
    12:00 +20°C° 0 mm 3 m/s 761 mmHg 34%
    13:00 +21°C° 0 mm 3 m/s 760 mmHg 31%
    14:00 +20°C° 0 mm 3 m/s 760 mmHg 34%
    15:00 +20°C° 0 mm 3 m/s 760 mmHg 37%
    16:00 +19°C° 0 mm 3 m/s 760 mmHg 40%
    17:00 +17°C° 0 mm 3 m/s 761 mmHg 46%
    18:00 +14°C° 0 mm 3 m/s 761 mmHg 51%
    19:00 +12°C° 0 mm 3 m/s 762 mmHg 56%
    20:00 +12°C° 0 mm 3 m/s 762 mmHg 57%
    21:00 +11°C° 0 mm 4 m/s 762 mmHg 58%
    22:00 +11°C° 0 mm 4 m/s 762 mmHg 60%
    23:00 +11°C° 0 mm 4 m/s 762 mmHg 61%

    2 Junho, Sábado

    Tempo Temperatura Precipitação Vento Pressão Humidade
    00:00 +9°C° 0 mm 5 m/s 761 mmHg 62%
    01:00 +9°C° 0 mm 5 m/s 761 mmHg 64%
    02:00 +9°C° 0 mm 5 m/s 761 mmHg 66%
    03:00 +8°C° 0 mm 5 m/s 761 mmHg 68%
    04:00 +8°C° 0 mm 5 m/s 761 mmHg 70%
    05:00 +8°C° 0 mm 5 m/s 761 mmHg 71%
    06:00 +8°C° 0 mm 5 m/s 761 mmHg 72%
    07:00 +8°C° 0 mm 4 m/s 761 mmHg 73%
    08:00 +12°C° 0 mm 4 m/s 761 mmHg 62%
    09:00 +15°C° 0 mm 4 m/s 761 mmHg 52%
    10:00 +19°C° 0 mm 4 m/s 761 mmHg 41%
    11:00 +20°C° 0 mm 4 m/s 760 mmHg 37%
    12:00 +21°C° 0 mm 4 m/s 759 mmHg 34%
    13:00 +22°C° 0 mm 3 m/s 759 mmHg 31%
    14:00 +21°C° 0 mm 3 m/s 759 mmHg 34%
    15:00 +21°C° 0 mm 3 m/s 759 mmHg 37%
    16:00 +20°C° 0 mm 3 m/s 759 mmHg 40%
    17:00 +18°C° 0 mm 3 m/s 759 mmHg 44%
    18:00 +16°C° 0 mm 3 m/s 760 mmHg 49%
    19:00 +13°C° 0 mm 3 m/s 760 mmHg 54%
    20:00 +13°C° 0 mm 4 m/s 760 mmHg 55%
    21:00 +12°C° 0 mm 4 m/s 760 mmHg 57%
    22:00 +12°C° 0 mm 4 m/s 760 mmHg 59%
    23:00 +12°C° 0 mm 4 m/s 760 mmHg 61%
    Mostrar mais